Find Starlink 31479

NORAD ID: 59316 Int'l Des: 2024-056 Owner: SPXS Country: US Constellation: starlink operational
LEOCIRCULAR

リアルタイム位置

3D地球を読み込み中...

Starlink 31479について

説明を読み込み中...

次回通過

Passes for default location (London). Set your location on the main map for personalized predictions.

高度履歴

Loading altitude history...

軌道要素

1 59316U 24056W 26132.35274586 .00000523 00000-0 28532-4 0 9999
2 59316 43.0028 235.2459 0001365 260.7997 99.2701 15.27578250120843
Epoch: May 12, 2026 • Age: 28 hours

現在のステータス

高度 487.3 km
速度 7.62 km/s
衛星直下点 -20.88°S, 20.53°E
打ち上げ日 Mar 24, 2024
運用期間 2.1 years
タイプ internet

技術仕様

分類 Payload
質量 730.00 kg
乾燥質量 700.00 kg
総質量 730.00 kg
長さ 0.30 m
直径 4.10 m
スパン 29.00 m
形状 Box + pan
製造者 SPXS
バスタイプ Starlink V2M
フェーズステータス In Orbit
所有者/国 SPXS/US

Most Searched